TimeCST,TemperatureF,Dew PointF,Humidity,Sea Level PressureIn,VisibilityMPH,Wind Direction,Wind SpeedMPH,Gust SpeedMPH,PrecipitationIn,Events,Conditions,WindDirDegrees,DateUTC
12:13 AM,19.4,15.8,86,30.08,10.0,NNE,4.6,-,N/A,,Overcast,30,2013-02-22 06:13:00
12:34 AM,19.4,15.8,86,30.07,10.0,NE,6.9,-,N/A,Snow,Light Snow,50,2013-02-22 06:34:00
12:53 AM,19.4,17.6,93,30.06,10.0,NE,8.1,-,N/A,,Overcast,40,2013-02-22 06:53:00
1:14 AM,19.4,17.6,93,30.05,10.0,NE,8.1,-,N/A,,Overcast,40,2013-02-22 07:14:00
1:33 AM,19.4,17.6,93,30.04,10.0,NE,10.4,-,N/A,,Overcast,40,2013-02-22 07:33:00
2:13 AM,19.4,15.8,86,30.03,10.0,NNE,5.8,-,N/A,,Overcast,20,2013-02-22 08:13:00
2:33 AM,19.4,15.8,86,30.03,10.0,NE,4.6,-,N/A,,Overcast,40,2013-02-22 08:33:00
2:54 AM,19.4,15.8,86,30.02,10.0,NNE,5.8,-,N/A,,Overcast,30,2013-02-22 08:54:00
3:13 AM,17.6,15.8,93,30.02,10.0,NNE,4.6,-,N/A,,Mostly Cloudy,30,2013-02-22 09:13:00
3:33 AM,17.6,15.8,93,30.02,10.0,North,3.5,-,N/A,,Mostly Cloudy,10,2013-02-22 09:33:00
3:53 AM,17.6,15.8,93,30.02,10.0,North,5.8,-,N/A,,Overcast,360,2013-02-22 09:53:00
4:13 AM,17.6,15.8,93,30.01,7.0,North,8.1,-,N/A,Snow,Light Snow,360,2013-02-22 10:13:00
4:33 AM,19.4,15.8,86,30.00,5.0,North,9.2,-,N/A,Snow,Light Snow,360,2013-02-22 10:33:00
4:53 AM,19.4,15.8,86,30.00,1.5,North,8.1,-,N/A,Snow,Light Snow,360,2013-02-22 10:53:00
5:13 AM,19.4,15.8,86,30.00,1.5,North,8.1,-,N/A,Snow,Light Snow,360,2013-02-22 11:13:00
5:33 AM,19.4,17.6,93,29.99,1.5,North,8.1,-,N/A,Snow,Light Snow,350,2013-02-22 11:33:00
5:53 AM,17.6,15.8,93,29.99,1.8,North,10.4,-,N/A,Snow,Light Snow,350,2013-02-22 11:53:00
6:13 AM,17.6,15.8,93,29.99,2.0,North,9.2,-,N/A,Snow,Light Snow,350,2013-02-22 12:13:00
6:33 AM,17.6,15.8,93,29.99,2.0,North,10.4,-,N/A,Snow,Light Snow,350,2013-02-22 12:33:00
6:55 AM,17.6,15.8,93,29.98,2.5,North,11.5,-,N/A,Snow,Light Snow,350,2013-02-22 12:55:00
7:13 AM,17.6,15.8,93,29.98,5.0,North,11.5,-,N/A,Snow,Light Snow,350,2013-02-22 13:13:00
7:33 AM,17.6,15.8,93,29.98,4.0,North,11.5,-,N/A,Snow,Light Snow,350,2013-02-22 13:33:00
7:53 AM,19.4,15.8,86,29.97,2.5,North,11.5,-,N/A,Snow,Light Snow,350,2013-02-22 13:53:00
8:13 AM,19.4,15.8,86,29.97,10.0,North,10.4,-,N/A,Snow,Light Snow,350,2013-02-22 14:13:00
8:33 AM,19.4,15.8,86,29.97,7.0,North,10.4,-,N/A,Snow,Light Snow,350,2013-02-22 14:33:00
8:53 AM,19.4,15.8,86,29.97,7.0,NNW,11.5,-,N/A,Snow,Light Snow,340,2013-02-22 14:53:00
9:13 AM,19.4,15.8,86,29.97,10.0,NNW,12.7,-,N/A,Snow,Light Snow,340,2013-02-22 15:13:00
9:34 AM,19.4,15.8,86,29.97,10.0,North,12.7,-,N/A,Snow,Light Snow,350,2013-02-22 15:34:00
9:53 AM,19.4,15.8,86,29.96,10.0,NNW,12.7,-,N/A,,Overcast,340,2013-02-22 15:53:00
10:34 AM,19.4,17.6,93,29.96,7.0,NNW,15.0,-,N/A,,Overcast,340,2013-02-22 16:34:00
10:53 AM,21.2,17.6,86,29.95,2.5,NNW,15.0,-,N/A,Snow,Light Snow,340,2013-02-22 16:53:00
11:13 AM,21.2,17.6,86,29.95,1.5,NNW,15.0,-,N/A,Snow,Light Snow,340,2013-02-22 17:13:00
11:34 AM,21.2,17.6,86,29.94,1.2,NNW,13.8,-,N/A,Snow,Light Snow,340,2013-02-22 17:34:00
11:53 AM,21.2,17.6,86,29.94,1.8,NNW,15.0,-,N/A,Snow,Light Snow,340,2013-02-22 17:53:00
12:14 PM,21.2,17.6,86,29.93,2.0,NNW,12.7,-,N/A,Snow,Light Snow,340,2013-02-22 18:14:00
12:34 PM,21.2,17.6,86,29.93,2.0,NNW,11.5,-,N/A,Snow,Light Snow,340,2013-02-22 18:34:00
12:53 PM,21.2,17.6,86,29.93,3.0,NNW,12.7,-,N/A,Snow,Light Snow,330,2013-02-22 18:53:00
1:14 PM,21.2,17.6,86,29.92,3.0,NNW,12.7,-,N/A,Snow,Light Snow,340,2013-02-22 19:14:00
1:33 PM,21.2,17.6,86,29.92,1.8,NW,12.7,-,N/A,Snow,Light Snow,320,2013-02-22 19:33:00
1:53 PM,21.2,17.6,86,29.92,1.0,NW,12.7,-,N/A,Snow,Light Snow,320,2013-02-22 19:53:00
2:14 PM,21.2,17.6,86,29.92,1.5,NW,12.7,-,N/A,Snow,Light Snow,320,2013-02-22 20:14:00
2:33 PM,21.2,17.6,86,29.92,1.5,NW,11.5,-,N/A,Snow,Light Snow,320,2013-02-22 20:33:00
2:54 PM,21.2,17.6,86,29.92,1.5,NW,12.7,-,N/A,Snow,Light Snow,310,2013-02-22 20:54:00
3:14 PM,21.2,17.6,86,29.93,1.5,NW,12.7,-,N/A,Snow,Light Snow,310,2013-02-22 21:14:00
3:33 PM,19.4,15.8,86,29.93,1.8,NW,15.0,-,N/A,Snow,Light Snow,320,2013-02-22 21:33:00
3:53 PM,19.4,15.8,86,29.93,1.5,NW,15.0,-,N/A,Snow,Light Snow,320,2013-02-22 21:53:00
4:14 PM,19.4,15.8,86,29.93,3.0,NNW,13.8,-,N/A,Snow,Light Snow,330,2013-02-22 22:14:00
4:33 PM,19.4,15.8,86,29.93,5.0,NNW,13.8,-,N/A,Snow,Light Snow,330,2013-02-22 22:33:00
4:53 PM,19.4,15.8,86,29.93,7.0,NNW,10.4,-,N/A,Snow,Light Snow,330,2013-02-22 22:53:00
5:13 PM,19.4,15.8,86,29.93,7.0,NW,9.2,-,N/A,Snow,Light Snow,320,2013-02-22 23:13:00
5:34 PM,19.4,15.8,86,29.93,10.0,NNW,11.5,-,N/A,Snow,Light Snow,330,2013-02-22 23:34:00
5:54 PM,19.4,15.8,86,29.93,7.0,NW,9.2,-,N/A,Snow,Light Snow,320,2013-02-22 23:54:00
6:13 PM,19.4,15.8,86,29.93,10.0,NW,10.4,-,N/A,Snow,Light Snow,320,2013-02-23 00:13:00
6:33 PM,17.6,15.8,93,29.93,10.0,NNW,8.1,-,N/A,,Overcast,330,2013-02-23 00:33:00
6:53 PM,17.6,15.8,93,29.93,10.0,NW,5.8,-,N/A,Snow,Light Snow,320,2013-02-23 00:53:00
7:13 PM,17.6,15.8,93,29.93,10.0,NW,5.8,-,N/A,Snow,Light Snow,320,2013-02-23 01:13:00
7:33 PM,17.6,15.8,93,29.93,10.0,NW,6.9,-,N/A,Snow,Light Snow,310,2013-02-23 01:33:00
7:53 PM,17.6,14.0,86,29.93,10.0,WNW,6.9,-,N/A,Snow,Light Snow,300,2013-02-23 01:53:00
8:13 PM,17.6,12.2,79,29.92,10.0,NW,10.4,-,N/A,,Overcast,310,2013-02-23 02:13:00
8:33 PM,17.6,12.2,79,29.92,10.0,NW,8.1,-,N/A,Snow,Light Snow,320,2013-02-23 02:33:00
8:53 PM,17.6,12.2,79,29.91,10.0,NW,6.9,-,N/A,Snow,Light Snow,310,2013-02-23 02:53:00
9:13 PM,17.6,12.2,79,29.91,10.0,West,6.9,-,N/A,,Overcast,270,2013-02-23 03:13:00
9:34 PM,15.8,12.2,86,29.92,10.0,WNW,4.6,-,N/A,,Overcast,290,2013-02-23 03:34:00
9:53 PM,15.8,12.2,86,29.92,10.0,WNW,4.6,-,N/A,,Overcast,290,2013-02-23 03:53:00
10:13 PM,12.2,10.4,92,29.91,10.0,WNW,5.8,-,N/A,,Overcast,290,2013-02-23 04:13:00
10:33 PM,15.8,10.4,79,29.91,10.0,WNW,5.8,-,N/A,,Overcast,290,2013-02-23 04:33:00
10:53 PM,15.8,10.4,79,29.92,10.0,West,8.1,-,N/A,,Overcast,280,2013-02-23 04:53:00
11:13 PM,15.8,10.4,79,29.92,10.0,West,4.6,-,N/A,,Overcast,280,2013-02-23 05:13:00
11:33 PM,15.8,10.4,79,29.91,10.0,West,5.8,-,N/A,,Overcast,270,2013-02-23 05:33:00
11:53 PM,14.0,10.4,86,29.91,10.0,Calm,Calm,-,N/A,,Overcast,0,2013-02-23 05:53:00